Weather History for Cody, WY

Change the Weather History Date:

Sunday, September 30, 2012

  Actual Average Record
Temperature  
Mean Temperature 60 °F -  
Max Temperature 68 °F 69 °F 89 °F (1963)
Min Temperature 51 °F 40 °F 17 °F (1985)
Degree Days  
Heating Degree Days 6    
Growing Degree Days 10 (Base 50)    
Moisture  
Dew Point 39 °F    
Average Humidity 46    
Maximum Humidity 63    
Minimum Humidity 35    
Precipitation  
Precipitation 0.00 in - - ()
Sea Level Pressure  
Sea Level Pressure 30.23 in    
Wind  
Wind Speed 7 mph (NW)    
Max Wind Speed 14 mph    
Max Gust Speed 16 mph    
Visibility 10 miles    
Events      
Averages and records for this station are not official NWS values.
T = Trace of Precipitation, MM = Missing Value Source: NWS Daily Summary

Daily Weather History Graph

Daily Weather History Graph

Search for Another Location

Airport:

Trip Planner

Search our weather history database for the weather conditions in past years. The results will help you decide how hot, cold, wet, or windy it might be!

Date:

Astronomy

Sep. 30, 2012 Rise Set
Actual Time 7:13 AM MDT 6:57 PM MDT
Civil Twilight 6:44 AM MDT 7:26 PM MDT
Nautical Twilight 6:10 AM MDT 8:00 PM MDT
Astronomical Twilight 5:36 AM MDT 8:34 PM MDT
Moon 6:58 PM MDT (9/30) 7:50 AM MDT (9/30)
Length of Visible Light 12h 42m
Length of Day
11h 44m
Full, 100% of the Moon is Illuminated
Sep 30
Full
Oct 8
Last Quarter
Oct 15
New
Oct 21
First Quarter
Oct 29
Full

Hourly Weather History & Observations

Time (MDT) Temp. Dew Point Humidity Pressure Visibility Wind Dir Wind Speed Gust Speed Precip Events Conditions
12:35 AM 60.8 °F 37.4 °F 42% 30.19 in 10.0 mi WSW 8.1 mph - N/A   Clear
12:55 AM 60.8 °F 39.2 °F 45% 30.18 in 10.0 mi West 9.2 mph - N/A   Scattered Clouds
1:15 AM 62.6 °F 37.4 °F 39% 30.18 in 10.0 mi SSW 6.9 mph - N/A   Scattered Clouds
1:35 AM 60.8 °F 37.4 °F 42% 30.19 in 10.0 mi WNW 3.5 mph - N/A   Clear
1:55 AM 57.2 °F 37.4 °F 48% 30.19 in 10.0 mi West 4.6 mph - N/A   Clear
2:15 AM 60.8 °F 39.2 °F 45% 30.19 in 10.0 mi NNW 4.6 mph - N/A   Clear
2:35 AM 59.0 °F 39.2 °F 48% 30.18 in 10.0 mi West 4.6 mph - N/A   Clear
2:55 AM 57.2 °F 37.4 °F 48% 30.18 in 10.0 mi Calm Calm - N/A   Clear
3:15 AM 59.0 °F 37.4 °F 45% 30.18 in 10.0 mi WSW 3.5 mph - N/A   Clear
3:35 AM 59.0 °F 39.2 °F 48% 30.18 in 10.0 mi WSW 5.8 mph - N/A   Clear
4:15 AM 53.6 °F 37.4 °F 54% 30.19 in 10.0 mi South 5.8 mph - N/A   Clear
4:35 AM 51.8 °F 37.4 °F 58% 30.19 in 10.0 mi South 10.4 mph - N/A   Clear
4:55 AM 53.6 °F 39.2 °F 58% 30.19 in 10.0 mi SSW 9.2 mph - N/A   Clear
5:15 AM 53.6 °F 39.2 °F 58% 30.19 in 10.0 mi SW 9.2 mph - N/A   Clear
5:35 AM 53.6 °F 41.0 °F 62% 30.19 in 10.0 mi SW 8.1 mph - N/A   Scattered Clouds
5:55 AM 53.6 °F 39.2 °F 58% 30.19 in 10.0 mi SW 10.4 mph - N/A   Scattered Clouds
6:15 AM 53.6 °F 39.2 °F 58% 30.19 in 10.0 mi NNW 3.5 mph - N/A   Mostly Cloudy
6:35 AM 53.6 °F 41.0 °F 62% 30.20 in 10.0 mi SSW 4.6 mph - N/A   Overcast
6:55 AM 53.6 °F 41.0 °F 62% 30.20 in 10.0 mi South 6.9 mph - N/A   Overcast
7:15 AM 53.6 °F 39.2 °F 58% 30.22 in 10.0 mi Calm Calm - N/A   Scattered Clouds
7:35 AM 55.4 °F 39.2 °F 54% 30.22 in 10.0 mi SW 4.6 mph - N/A   Mostly Cloudy
7:55 AM 55.4 °F 39.2 °F 54% 30.22 in 10.0 mi SW 3.5 mph - N/A   Mostly Cloudy
8:15 AM 55.4 °F 42.8 °F 63% 30.23 in 10.0 mi North 3.5 mph - N/A   Overcast
8:35 AM 53.6 °F 41.0 °F 62% 30.23 in 10.0 mi Calm Calm - N/A   Mostly Cloudy
8:55 AM 57.2 °F 42.8 °F 59% 30.23 in 10.0 mi Calm Calm - N/A   Partly Cloudy
9:15 AM 60.8 °F 41.0 °F 48% 30.23 in 10.0 mi WSW 3.5 mph - N/A   Clear
9:35 AM 62.6 °F 41.0 °F 45% 30.23 in 10.0 mi WSW 4.6 mph - N/A   Clear
9:56 AM 64.4 °F 39.2 °F 40% 30.23 in 10.0 mi WSW 3.5 mph - N/A   Partly Cloudy
10:15 AM 66.2 °F 37.4 °F 35% 30.23 in 10.0 mi North 3.5 mph - N/A   Mostly Cloudy
10:35 AM 66.2 °F 41.0 °F 40% 30.23 in 10.0 mi NNE 8.1 mph - N/A   Mostly Cloudy
10:55 AM 66.2 °F 41.0 °F 40% 30.22 in 10.0 mi NNE 6.9 mph - N/A   Overcast
11:15 AM 66.2 °F 39.2 °F 37% 30.22 in 10.0 mi NNE 8.1 mph - N/A   Mostly Cloudy
11:35 AM 66.2 °F 41.0 °F 40% 30.22 in 10.0 mi NNE 10.4 mph - N/A   Scattered Clouds
11:55 AM 68.0 °F 41.0 °F 37% 30.21 in 10.0 mi NNE 10.4 mph - N/A   Clear
12:15 PM 66.2 °F 39.2 °F 37% 30.21 in 10.0 mi NNE 11.5 mph - N/A   Mostly Cloudy
12:55 PM 66.2 °F 39.2 °F 37% 30.20 in 10.0 mi NNE 8.1 mph - N/A   Overcast
1:16 PM 66.2 °F 41.0 °F 40% 30.20 in 10.0 mi NE 9.2 mph - N/A   Overcast
1:35 PM 66.2 °F 41.0 °F 40% 30.19 in 10.0 mi NNE 10.4 mph - N/A   Overcast
1:55 PM 68.0 °F 42.8 °F 40% 30.19 in 10.0 mi North 13.8 mph - N/A   Overcast
2:15 PM 68.0 °F 41.0 °F 37% 30.20 in 10.0 mi NNE 10.4 mph - N/A   Overcast
2:35 PM 66.2 °F 41.0 °F 40% 30.20 in 10.0 mi NNE 9.2 mph - N/A   Overcast
2:55 PM 66.2 °F 41.0 °F 40% 30.20 in 10.0 mi NE 10.4 mph - N/A   Overcast
3:15 PM 66.2 °F 41.0 °F 40% 30.21 in 10.0 mi NE 8.1 mph - N/A   Overcast
3:35 PM 66.2 °F 42.8 °F 43% 30.20 in 10.0 mi NNE 9.2 mph - N/A   Mostly Cloudy
3:55 PM 68.0 °F 41.0 °F 37% 30.20 in 10.0 mi NNE 8.1 mph - N/A   Partly Cloudy
4:15 PM 68.0 °F 42.8 °F 40% 30.20 in 10.0 mi NNE 9.2 mph - N/A   Partly Cloudy
4:35 PM 68.0 °F 41.0 °F 37% 30.20 in 10.0 mi North 11.5 mph 16.1 mph N/A   Partly Cloudy
4:55 PM 66.2 °F 41.0 °F 40% 30.21 in 10.0 mi NNE 12.7 mph - N/A   Clear
5:15 PM 64.4 °F 41.0 °F 42% 30.21 in 10.0 mi NNE 6.9 mph - N/A   Clear
5:35 PM 66.2 °F 39.2 °F 37% 30.21 in 10.0 mi NNE 8.1 mph - N/A   Scattered Clouds
5:55 PM 64.4 °F 39.2 °F 40% 30.21 in 10.0 mi NNE 4.6 mph - N/A   Mostly Cloudy
6:35 PM 64.4 °F 39.2 °F 40% 30.22 in 10.0 mi Calm Calm - N/A   Mostly Cloudy
7:15 PM 62.6 °F 37.4 °F 39% 30.25 in 10.0 mi NNW 5.8 mph - N/A   Mostly Cloudy
7:35 PM 62.6 °F 35.6 °F 37% 30.26 in 10.0 mi NW 5.8 mph - N/A   Overcast
7:55 PM 62.6 °F 35.6 °F 37% 30.26 in 10.0 mi NW 8.1 mph - N/A   Overcast
8:15 PM 62.6 °F 35.6 °F 37% 30.28 in 10.0 mi NW 6.9 mph - N/A   Overcast
8:35 PM 60.8 °F 35.6 °F 39% 30.28 in 10.0 mi WNW 6.9 mph - N/A   Mostly Cloudy
8:55 PM 60.8 °F 35.6 °F 39% 30.30 in 10.0 mi WNW 5.8 mph - N/A   Clear
9:15 PM 59.0 °F 35.6 °F 42% 30.30 in 10.0 mi WNW 4.6 mph - N/A   Clear
9:35 PM 57.2 °F 35.6 °F 44% 30.30 in 10.0 mi WNW 6.9 mph - N/A   Clear
9:55 PM 57.2 °F 35.6 °F 44% 30.31 in 10.0 mi NW 5.8 mph - N/A   Clear
10:15 PM 55.4 °F 35.6 °F 47% 30.32 in 10.0 mi NNW 9.2 mph - N/A   Clear
10:35 PM 55.4 °F 35.6 °F 47% 30.33 in 10.0 mi WNW 10.4 mph 16.1 mph N/A   Clear
10:55 PM 55.4 °F 35.6 °F 47% 30.33 in 10.0 mi WNW 6.9 mph - N/A   Clear
11:15 PM 55.4 °F 37.4 °F 51% 30.34 in 10.0 mi WNW 9.2 mph - N/A   Clear
11:35 PM 55.4 °F 37.4 °F 51% 30.34 in 10.0 mi NW 10.4 mph 16.1 mph N/A   Clear
11:55 PM 55.4 °F 37.4 °F 51% 30.35 in 10.0 mi NW 6.9 mph - N/A   Clear